Regional Weather Roundup
Issued by NWS

Home | Current Version | Previous Version | Graphics & Text | Print | Product List | Glossary On
Versions: 1 2 3 4 5 6 7 8 9 10 11 12 13 14 15 16 17 18 19 20 21 22 23 24 25 26 27 28 29 30 31 32 33 34 35 36 37 38 39 40 41 42 43 44 45 46 47 48 49 50
000
ASUS45 KCYS 250810
RWRWY

WYOMING REGIONAL WEATHER ROUNDUP
NATIONAL WEATHER SERVICE CHEYENNE WY
200 AM MDT MON MAY 25 2015

NOTE:  "FAIR" INDICATES FEW OR NO CLOUDS BELOW 12,000 FEET
WITH NO SIGNIFICANT WEATHER AND/OR OBSTRUCTIONS TO VISIBILITY.

WYZ001-250900-
YELLOWSTONE NATIONAL PARK

CITY           SKY/WX    TMP DP  RH WIND       PRES   REMARKS
LK YELLOWSTONE   N/A     30  28  92 CALM      30.05R
W YELLOWSTONE  NOT AVBL

$$
WYZ002>013-054>058-071-098>099-250900-
NORTHERN WYOMING

CITY           SKY/WX    TMP DP  RH WIND       PRES   REMARKS
JACKSON        CLOUDY    43  37  81 N10       29.96S
CODY           CLOUDY    48  43  81 NW3       29.96S
GREYBULL       LGT RAIN  50  46  86 SE3       29.89S
WORLAND        LGT RAIN  51  47  86 CALM      29.90F
SHERIDAN       LGT RAIN  48  47  96 W5        29.92F
BUFFALO        CLOUDY    46  45  96 NW9       29.93F
GILLETTE       CLOUDY    49  47  93 N6        29.88F
HULETT         CLOUDY    50  48  93 NE5       29.88F FOG
NEWCASTLE      PTSUNNY   48  46  93 CALM      29.86F

$$
WYZ014>020-022>026-101>103-250900-
CENTRAL WYOMING

CITY           SKY/WX    TMP DP  RH WIND       PRES   REMARKS
BIG PINEY      CLOUDY    42  39  89 SW7       30.00S
PINEDALE       DRIZZLE   41  41 100 CALM      30.01S
DUBOIS         CLOUDY    39  36  87 NW3       29.98F
LANDER         CLOUDY    45  42  89 SW6       29.94S
RIVERTON       LGT RAIN  46  44  93 W6        29.95S
CASPER         CLOUDY    44  41  89 NW6       29.91F
DOUGLAS        CLOUDY    48  45  89 NW8       29.88F

$$
WYZ021-027>030-104>119-250900-
SOUTHERN WYOMING

CITY           SKY/WX    TMP DP  RH WIND       PRES   REMARKS
EVANSTON       LGT RAIN  42  41  96 SW5       29.99S FOG
KEMMERER       CLOUDY    41  37  87 SE6       30.00S
FORT BRIDGER   CLOUDY    43  43 100 CALM      30.02R
ROCK SPRINGS   LGT RAIN  42  40  92 CALM      29.99R
DIXON          CLOUDY    42  40  92 CALM      29.99S
RAWLINS        CLOUDY    43  39  86 W6        29.95S
SARATOGA       CLOUDY    37  36  93 SW6       29.97S WCI  33
LARAMIE        CLOUDY    40  36  86 CALM      29.92S
CHEYENNE       LGT RAIN  44  41  89 NW8       29.89F
TORRINGTON     LGT RAIN  51  49  92 W3        29.83F
PINE BLUFFS    DRIZZLE   46  45  93 NW8       29.86S

$$


USA.gov is the U.S. government's official web portal to all federal, state and local government web resources and services.